EZS96XV LSGG-LFKJ

Flight info

Callsign EZS96XV
Flight time 0h 49m
Altitude 35000
Route MEDAM DCT VEVAR DCT BARSO DCT KOLON DCT OMARD M623 VAREK
Aircraft A320/M-SDE2E3FGHIJ1RWXYZ/LB1

Departure

Time 2026-04-10 11:43
Airport Geneva International Airport (LSGG)

Arrival

Time 2026-04-10 12:33
Airport Ajaccio Napoléon Bonaparte airport (LFKJ)
Time Latitude Longitude Altitude Speed Heading
2026-04-10 11:16 46.23451 6.10850 1404 ft 0 kts 135°
2026-04-10 11:39 46.23450 6.10850 1393 ft 1 kts 136°
2026-04-10 11:39 46.23430 6.10879 1403 ft 7 kts 136°
2026-04-10 11:39 46.23426 6.10943 1393 ft 7 kts 51°
2026-04-10 11:39 46.23477 6.11023 1400 ft 16 kts 46°
2026-04-10 11:40 46.23575 6.11156 1394 ft 17 kts 22°
2026-04-10 11:40 46.23656 6.11087 1386 ft 13 kts 319°
2026-04-10 11:40 46.23738 6.11126 1381 ft 17 kts 47°
2026-04-10 11:40 46.23833 6.11266 1375 ft 22 kts 46°
2026-04-10 11:41 46.23945 6.11436 1372 ft 25 kts 46°
2026-04-10 11:41 46.24075 6.11631 1368 ft 29 kts 46°
2026-04-10 11:41 46.24214 6.11834 1362 ft 23 kts 45°
2026-04-10 11:41 46.24291 6.11930 1361 ft 11 kts 20°
2026-04-10 11:42 46.24337 6.11899 1365 ft 6 kts 306°
2026-04-10 11:42 46.24330 6.11800 1367 ft 15 kts 251°
2026-04-10 11:42 46.24286 6.11614 1372 ft 25 kts 245°
2026-04-10 11:42 46.24097 6.11325 1373 ft 69 kts 225°
2026-04-10 11:43 46.23601 6.10597 1382 ft 131 kts 225°
2026-04-10 11:43 46.22851 6.09516 1591 ft 163 kts 224°
2026-04-10 11:43 46.22307 6.08737 2070 ft 164 kts 225°
2026-04-10 11:43 46.21232 6.07173 3066 ft 165 kts 227°
2026-04-10 11:44 46.20689 6.06369 3529 ft 167 kts 227°
2026-04-10 11:44 46.19888 6.05178 4245 ft 165 kts 227°
2026-04-10 11:44 46.19068 6.03968 4760 ft 178 kts 227°
2026-04-10 11:44 46.18144 6.02603 5029 ft 202 kts 227°
2026-04-10 11:45 46.17099 6.01062 5361 ft 227 kts 227°
2026-04-10 11:45 46.15940 5.99361 5786 ft 251 kts 227°
2026-04-10 11:45 46.14695 5.97501 6379 ft 267 kts 227°
2026-04-10 11:45 46.13367 5.95543 7230 ft 273 kts 224°
2026-04-10 11:46 46.11715 5.94143 8096 ft 282 kts 200°
2026-04-10 11:46 46.09751 5.93837 8979 ft 291 kts 175°
2026-04-10 11:46 46.07811 5.94740 9847 ft 299 kts 150°
2026-04-10 11:46 46.06249 5.96746 10540 ft 311 kts 130°
2026-04-10 11:47 46.04731 5.99130 10871 ft 332 kts 137°
2026-04-10 11:47 46.02966 6.01353 11515 ft 341 kts 142°
2026-04-10 11:47 46.01094 6.03496 12248 ft 347 kts 143°
2026-04-10 11:47 45.99172 6.05660 12964 ft 354 kts 143°
2026-04-10 11:48 45.97235 6.07890 13673 ft 361 kts 142°
2026-04-10 11:48 45.95275 6.10210 14301 ft 367 kts 141°
2026-04-10 11:48 45.93314 6.12592 14940 ft 371 kts 141°
2026-04-10 11:48 45.91342 6.15029 15613 ft 375 kts 141°
2026-04-10 11:49 45.89363 6.17492 16276 ft 379 kts 141°
2026-04-10 11:49 45.87364 6.19983 16940 ft 383 kts 140°
2026-04-10 11:49 45.85344 6.22492 17597 ft 386 kts 141°
2026-04-10 11:49 45.83296 6.25024 18263 ft 390 kts 141°
2026-04-10 11:50 45.81228 6.27573 18835 ft 394 kts 141°
2026-04-10 11:50 45.79128 6.30154 19395 ft 400 kts 141°
2026-04-10 11:50 45.76995 6.32765 19973 ft 406 kts 141°
2026-04-10 11:50 45.74843 6.35398 20555 ft 409 kts 141°
2026-04-10 11:51 45.72665 6.38059 21048 ft 414 kts 141°
2026-04-10 11:51 45.70463 6.40748 21516 ft 419 kts 141°
2026-04-10 11:51 45.68264 6.43435 22038 ft 423 kts 141°
2026-04-10 11:51 45.66022 6.46179 22534 ft 427 kts 141°
2026-04-10 11:52 45.63753 6.48950 23038 ft 431 kts 141°
2026-04-10 11:52 45.61457 6.51747 23566 ft 436 kts 141°
2026-04-10 11:52 45.59136 6.54567 23930 ft 440 kts 141°
2026-04-10 11:52 45.56800 6.57404 24390 ft 442 kts 141°
2026-04-10 11:53 45.54454 6.60253 24843 ft 444 kts 141°
2026-04-10 11:53 45.52092 6.63117 25302 ft 446 kts 141°
2026-04-10 11:53 45.49717 6.65987 25735 ft 449 kts 141°
2026-04-10 11:53 45.47331 6.68872 26151 ft 452 kts 141°
2026-04-10 11:54 45.44926 6.71779 26571 ft 454 kts 141°
2026-04-10 11:54 45.42514 6.74692 27021 ft 456 kts 141°
2026-04-10 11:54 45.40081 6.77626 27428 ft 459 kts 141°
2026-04-10 11:54 45.37639 6.80566 27835 ft 461 kts 142°
2026-04-10 11:55 45.35183 6.83515 28220 ft 463 kts 142°
2026-04-10 11:55 45.32718 6.86475 28626 ft 466 kts 142°
2026-04-10 11:55 45.30220 6.89389 29005 ft 467 kts 146°
2026-04-10 11:55 45.27464 6.91836 29376 ft 466 kts 156°
2026-04-10 11:56 45.24491 6.93634 29750 ft 463 kts 166°
2026-04-10 11:56 45.21386 6.94757 30092 ft 461 kts 175°
2026-04-10 11:56 45.18193 6.95306 30328 ft 462 kts 178°
2026-04-10 11:56 45.14993 6.95787 30540 ft 465 kts 178°
2026-04-10 11:57 45.11758 6.96286 30777 ft 468 kts 178°
2026-04-10 11:57 45.08509 6.96796 31037 ft 471 kts 178°
2026-04-10 11:57 45.05243 6.97310 31312 ft 474 kts 178°
2026-04-10 11:57 45.01961 6.97823 31561 ft 476 kts 177°
2026-04-10 11:58 44.98674 6.98341 31957 ft 475 kts 177°
2026-04-10 11:58 44.95389 6.98861 32312 ft 475 kts 176°
2026-04-10 11:58 44.92115 6.99379 32644 ft 475 kts 176°
2026-04-10 11:58 44.88831 6.99894 32990 ft 475 kts 176°
2026-04-10 11:59 44.85544 7.00403 33354 ft 475 kts 176°
2026-04-10 11:59 44.82263 7.00900 33716 ft 474 kts 178°
2026-04-10 11:59 44.78980 7.00978 34044 ft 471 kts 187°
2026-04-10 11:59 44.75733 7.00465 34322 ft 468 kts 191°
2026-04-10 12:00 44.72503 6.99848 34649 ft 468 kts 191°
2026-04-10 12:00 44.69282 6.99238 34954 ft 468 kts 191°
2026-04-10 12:00 44.62870 6.98044 35059 ft 459 kts 191°
2026-04-10 12:01 44.56569 6.96867 35055 ft 456 kts 191°
2026-04-10 12:01 44.50276 6.95688 35049 ft 458 kts 191°
2026-04-10 12:02 44.43932 6.94505 35049 ft 460 kts 191°
2026-04-10 12:02 44.37631 6.93342 35044 ft 460 kts 190°
2026-04-10 12:03 44.31284 6.92166 35042 ft 460 kts 191°
2026-04-10 12:03 44.24943 6.90987 35043 ft 460 kts 191°
2026-04-10 12:04 44.18601 6.89817 35027 ft 459 kts 190°
2026-04-10 12:04 44.12207 6.89360 35020 ft 464 kts 176°
2026-04-10 12:05 44.05784 6.90339 35021 ft 464 kts 175°
2026-04-10 12:05 43.99358 6.91304 35010 ft 464 kts 175°
2026-04-10 12:06 43.92934 6.92250 35036 ft 464 kts 175°
2026-04-10 12:06 43.86524 6.93195 35038 ft 463 kts 175°
2026-04-10 12:07 43.76925 6.94664 35036 ft 463 kts 172°
2026-04-10 12:08 43.70815 6.97367 35046 ft 463 kts 152°
2026-04-10 12:08 43.65500 7.02339 35039 ft 462 kts 141°
2026-04-10 12:09 43.60378 7.07693 35033 ft 462 kts 142°
2026-04-10 12:09 43.55240 7.13018 35045 ft 462 kts 142°
2026-04-10 12:10 43.50112 7.18336 34788 ft 459 kts 142°
2026-04-10 12:10 43.47568 7.20969 34541 ft 456 kts 142°
2026-04-10 12:10 43.45039 7.23590 34307 ft 454 kts 141°
2026-04-10 12:10 43.42553 7.26167 34068 ft 452 kts 141°
2026-04-10 12:11 43.40051 7.28759 33804 ft 450 kts 141°
2026-04-10 12:11 43.37562 7.31330 33297 ft 446 kts 142°
2026-04-10 12:11 43.35088 7.33876 32762 ft 443 kts 142°
2026-04-10 12:11 43.32624 7.36409 32230 ft 441 kts 142°
2026-04-10 12:12 43.30170 7.38933 31703 ft 439 kts 142°
2026-04-10 12:12 43.27733 7.41441 31186 ft 437 kts 143°
2026-04-10 12:12 43.25308 7.43934 30683 ft 435 kts 143°
2026-04-10 12:12 43.22886 7.46415 30177 ft 433 kts 143°
2026-04-10 12:13 43.20476 7.48876 29639 ft 430 kts 143°
2026-04-10 12:13 43.18085 7.51316 29161 ft 426 kts 143°
2026-04-10 12:13 43.15726 7.53728 28695 ft 421 kts 143°
2026-04-10 12:13 43.13394 7.56118 28235 ft 417 kts 143°
2026-04-10 12:14 43.11032 7.58498 27288 ft 426 kts 144°
2026-04-10 12:14 43.08628 7.60849 26812 ft 422 kts 145°
2026-04-10 12:14 43.06234 7.63151 26315 ft 419 kts 145°
2026-04-10 12:14 43.03849 7.65425 25817 ft 417 kts 145°
2026-04-10 12:15 43.01478 7.67688 25300 ft 415 kts 145°
2026-04-10 12:15 42.99120 7.69949 24781 ft 413 kts 145°
2026-04-10 12:15 42.96777 7.72207 24243 ft 412 kts 145°
2026-04-10 12:15 42.94439 7.74461 23723 ft 411 kts 145°
2026-04-10 12:16 42.92100 7.76716 23112 ft 410 kts 145°
2026-04-10 12:16 42.89786 7.78949 22673 ft 405 kts 145°
2026-04-10 12:16 42.87485 7.81162 22215 ft 402 kts 145°
2026-04-10 12:16 42.85213 7.83349 21693 ft 400 kts 145°
2026-04-10 12:17 42.82952 7.85526 21180 ft 395 kts 145°
2026-04-10 12:17 42.80733 7.87659 20597 ft 384 kts 145°
2026-04-10 12:17 42.78586 7.89720 20153 ft 373 kts 146°
2026-04-10 12:17 42.76482 7.91735 19701 ft 367 kts 146°
2026-04-10 12:18 42.74409 7.93720 19248 ft 362 kts 146°
2026-04-10 12:18 42.72358 7.95681 18803 ft 357 kts 146°
2026-04-10 12:18 42.70341 7.97608 18380 ft 353 kts 146°
2026-04-10 12:18 42.68341 7.99516 17901 ft 349 kts 146°
2026-04-10 12:19 42.66368 8.01396 17477 ft 344 kts 146°
2026-04-10 12:19 42.64424 8.03248 17056 ft 339 kts 146°
2026-04-10 12:19 42.62507 8.05075 16664 ft 334 kts 146°
2026-04-10 12:19 42.60616 8.06877 16259 ft 331 kts 146°
2026-04-10 12:20 42.58745 8.08659 15880 ft 328 kts 146°
2026-04-10 12:20 42.56870 8.10441 15498 ft 329 kts 146°
2026-04-10 12:20 42.54994 8.12226 15106 ft 330 kts 146°
2026-04-10 12:20 42.53111 8.14017 14709 ft 331 kts 146°
2026-04-10 12:21 42.51218 8.15812 14323 ft 332 kts 147°
2026-04-10 12:21 42.49321 8.17608 13930 ft 333 kts 147°
2026-04-10 12:21 42.47417 8.19407 13499 ft 334 kts 147°
2026-04-10 12:21 42.45516 8.21206 13101 ft 333 kts 146°
2026-04-10 12:22 42.43616 8.23002 12693 ft 333 kts 146°
2026-04-10 12:22 42.41717 8.24794 12282 ft 332 kts 146°
2026-04-10 12:22 42.39817 8.26583 11824 ft 333 kts 146°
2026-04-10 12:22 42.37915 8.28373 11404 ft 333 kts 146°
2026-04-10 12:23 42.36019 8.30158 10989 ft 332 kts 146°
2026-04-10 12:23 42.34122 8.31946 10548 ft 332 kts 146°
2026-04-10 12:23 42.32233 8.33731 10120 ft 332 kts 146°
2026-04-10 12:23 42.30348 8.35504 9858 ft 325 kts 146°
2026-04-10 12:24 42.28528 8.37215 9560 ft 312 kts 146°
2026-04-10 12:24 42.26787 8.38851 8961 ft 307 kts 146°
2026-04-10 12:24 42.25032 8.40500 8392 ft 300 kts 146°
2026-04-10 12:24 42.23311 8.42112 7948 ft 301 kts 146°
2026-04-10 12:25 42.21603 8.43713 7556 ft 300 kts 146°
2026-04-10 12:25 42.19908 8.45303 7266 ft 294 kts 146°
2026-04-10 12:25 42.18772 8.46367 6998 ft 294 kts 146°
2026-04-10 12:25 42.16559 8.48436 6485 ft 291 kts 146°
2026-04-10 12:26 42.15471 8.49531 6166 ft 287 kts 140°
2026-04-10 12:26 42.13944 8.51245 5601 ft 281 kts 140°
2026-04-10 12:26 42.12443 8.52935 5293 ft 282 kts 140°
2026-04-10 12:26 42.10949 8.54615 4995 ft 277 kts 140°
2026-04-10 12:27 42.09487 8.56258 4698 ft 271 kts 140°
2026-04-10 12:27 42.08053 8.57869 4404 ft 265 kts 141°
2026-04-10 12:27 42.06655 8.59440 4127 ft 260 kts 141°
2026-04-10 12:27 42.05275 8.60987 3855 ft 255 kts 141°
2026-04-10 12:28 42.03926 8.62497 3575 ft 250 kts 141°
2026-04-10 12:28 42.02606 8.63979 3324 ft 245 kts 141°
2026-04-10 12:28 42.01425 8.65583 3079 ft 239 kts 125°
2026-04-10 12:28 42.00699 8.67526 2970 ft 226 kts 107°
2026-04-10 12:29 42.00405 8.69477 2982 ft 207 kts 99°
2026-04-10 12:29 42.00174 8.71273 3001 ft 178 kts 100°
2026-04-10 12:29 41.99973 8.72810 2982 ft 160 kts 101°
2026-04-10 12:29 41.99784 8.74233 2828 ft 155 kts 100°
2026-04-10 12:30 41.99599 8.75639 2550 ft 150 kts 103°
2026-04-10 12:30 41.99418 8.77016 2303 ft 149 kts 102°
2026-04-10 12:30 41.99233 8.78402 2012 ft 151 kts 101°
2026-04-10 12:30 41.99039 8.79801 1732 ft 157 kts 101°
2026-04-10 12:31 41.98754 8.81238 1469 ft 156 kts 120°
2026-04-10 12:31 41.98060 8.82264 1297 ft 148 kts 153°
2026-04-10 12:31 41.97121 8.82707 1054 ft 143 kts 181°
2026-04-10 12:31 41.96168 8.82526 839 ft 135 kts 200°
2026-04-10 12:32 41.95309 8.82077 662 ft 133 kts 206°
2026-04-10 12:32 41.94475 8.81555 428 ft 130 kts 206°
2026-04-10 12:32 41.93660 8.81038 221 ft 131 kts 208°
2026-04-10 12:32 41.92837 8.80531 35 ft 128 kts 208°
2026-04-10 12:33 41.92176 8.80105 23 ft 68 kts 205°
2026-04-10 12:33 41.91884 8.79921 25 ft 39 kts 205°
2026-04-10 12:33 41.91652 8.79774 22 ft 34 kts 205°
2026-04-10 12:33 41.91447 8.79645 22 ft 31 kts 205°
2026-04-10 12:34 41.91279 8.79541 24 ft 17 kts 205°
2026-04-10 12:34 41.91256 8.79438 22 ft 14 kts 307°
2026-04-10 12:34 41.91345 8.79369 21 ft 16 kts 334°
2026-04-10 12:34 41.91453 8.79335 21 ft 16 kts
2026-04-10 12:35 41.91552 8.79389 21 ft 15 kts 24°
2026-04-10 12:35 41.91644 8.79446 22 ft 14 kts 24°
2026-04-10 12:35 41.91728 8.79497 23 ft 12 kts 24°
2026-04-10 12:35 41.91801 8.79544 21 ft 11 kts 25°
2026-04-10 12:36 41.91860 8.79578 21 ft 7 kts 15°
2026-04-10 12:36 41.91879 8.79560 23 ft 2 kts 306°
2026-04-10 12:36 41.91888 8.79548 -1 ft 3 kts 318°
2026-04-10 12:36 41.91904 8.79540 24 ft 1 kts 345°
2026-04-10 12:37 41.91911 8.79537 32 ft 1 kts 344°
2026-04-10 12:37 41.91913 8.79536 30 ft 0 kts 344°